User: anonymous   Login
Location: Unspecified
(0.0000°N, 0.0000°E)
Time: 21:56:15
(UTC+00:00)
Language:

Picosat 5 - Orbit

View from above orbital plane
View from above orbital plane
View from above satellite
View from above satellite

Ground track
Ground track

The orbit data is extracted from the following two-line orbital elements,

1 26093U 00004L   17082.48986426 +.00000375 +00000-0 +11034-3 0  9996
2 26093 100.1783 171.2472 0029691 293.4598 066.3470 14.51013119902376
Epoch (UTC): 23 March 2017 11:45:24
Eccentricity: 0.0029691
inclination: 100.1783°
perigee height: 701 km
apogee height: 743 km
right ascension of ascending node: 171.2472°
argument of perigee: 293.4598°
revolutions per day: 14.51013119
mean anomaly at epoch: 66.3470°
orbit number at epoch: 90237

The dashed part of the orbit path shows where the satellite is in the earth's shadow,  

DLR